Content
SEND FEEDBACK

Daily
Averages
Monthly
Summary
United States of America

WILMINGTON, NORTH CAROLINA


Home > North America > United States > North Carolina
Elevation: 72 feet     Latitude: 34 16N     Longitude: 077 54W

WEATHER
 
SELECT A DAY
Number of Records: 211,687;   Date Range: 1/1/95 - 9/30/14
 
SHARE

PRINT THIS DATA

[ ← Previous Day ]
WEATHER ALMANAC - APRIL 27, 2014
[ Next Day → ]
[ °C ]   °F
Weather ElementAverageHighLow
Temperature72.3 °F86 °F (2:53 pm)59 °F (3:53 am)
Dewpoint54.7 °F57.9 °F (8:53 am)52 °F (1:53 am)
Humidity57.4 %87 % (3:53 am)31 % (2:53 pm)
Barometer29.98 in30.02 in (7:53 am)29.92 in (4:53 pm)
Wind Speed8.7 mph16.1 mph (9:53 am)
Weather ElementAverage
Visibility10 mi
Wind DirectionSSW (215.7 °)

Weather ElementTotal
Precipitation---
Cooling Degree Days7.5 (Base 65)
Growing Degree Days22.5 (Base 50)
Averaged from 23 records on April 27, 2014
WEATHER CONDITIONS BREAKOUT
WIND DIRECTION BREAKOUT
WEATHER BY HOUR - APRIL 27, 2014
[ °C ]   °F
Local TimeTemperatureDewpointHumidityBarometerVisibilityWind DirectionWind SpeedGust SpeedPrecipitationEventsConditions
1:53 AM62.1 °F52.0 °F70 %29.98 in10.0 miSW (220°)8.1 mphClear
2:53 AM61.0 °F54.0 °F78 %29.98 in10.0 miSW (230°)8.1 mphClear
3:53 AM59.0 °F55.0 °F87 %29.97 in10.0 miSW (230°)5.8 mphClear
4:53 AM60.1 °F55.0 °F83 %29.97 in10.0 miWSW (240°)6.9 mphClear
5:53 AM60.1 °F55.0 °F83 %29.98 in10.0 miWSW (240°)8.1 mphClear
6:53 AM60.1 °F55.0 °F83 %30.00 in10.0 miWSW (250°)9.2 mphClear
7:53 AM64.0 °F57.0 °F78 %30.02 in10.0 miWest (260°)10.4 mphClear
8:53 AM69.1 °F57.9 °F68 %30.02 in10.0 miWest (260°)15.0 mphClear
9:53 AM73.9 °F57.0 °F55 %30.02 in10.0 miWest (270°)16.1 mphClear
10:53 AM79.0 °F55.9 °F45 %30.02 in10.0 miWNW (290°)11.5 mphClear
11:53 AM82.4 °F57.2 °F42 %30.02 in10.0 miWest (260°)9.2 mphClear
12:53 PM82.9 °F54.0 °F37 %29.99 in10.0 miNNW (330°)8.1 mphClear
1:53 PM84.9 °F54.0 °F34 %29.97 in10.0 miWNW (290°)5.8 mphClear
2:53 PM86.0 °F52.0 °F31 %29.96 in10.0 miVariable3.5 mphClear
3:53 PM86.0 °F53.6 °F33 %29.93 in9.0 miWSW (240°)6.9 mphClear
4:53 PM84.0 °F57.9 °F41 %29.92 in10.0 miSSW (200°)15.0 mphPartly Cloudy
5:53 PM82.9 °F53.1 °F36 %29.94 in10.0 miSouth (190°)11.5 mphClear
6:53 PM78.1 °F52.0 °F40 %29.95 in10.0 miSW (220°)9.2 mphClear
7:53 PM75.0 °F53.1 °F46 %29.97 in10.0 miSSW (210°)6.9 mphClear
8:53 PM72.0 °F54.0 °F53 %29.98 in10.0 miSSW (210°)5.8 mphClear
9:53 PM71.1 °F52.0 °F51 %29.99 in10.0 miSW (220°)5.8 mphClear
10:53 PM66.0 °F54.0 °F65 %30.00 in10.0 miNE (40°)9.2 mphClear
11:53 PM63.0 °F57.0 °F81 %30.01 in10.0 miENE (60°)4.6 mphClear
Hourly data recorded from KILM, located miles away from Wilmington, North Carolina







STORIES FROM OUR PARTNERS